KE7JVX-3 Weather Reports


time (UTC)temp
C
wind
direction
speed
KPH
gust
KPH
rain 1hr
cm
rain 24hr
cm
rain mn
cm
humidity
%
barometer
mb
20260504025928 10 256 37.0 62.8 0.00 0.00 0.00 21 1009.9
20260504023927 10 258 40.2 61.2 0.00 0.00 0.00 17 1009.7
20260504022927 11 262 37.0 61.2 0.00 0.00 0.00 16 1009.8
20260504021928 11 249 37.0 54.7 0.00 0.00 0.00 15 1009.7
20260504020927 11 261 30.6 48.3 0.00 0.00 0.00 13 1009.8
20260504015927 11 253 32.2 49.9 0.00 0.00 0.00 11 1009.8
20260504014927 12 250 35.4 48.3 0.00 0.00 0.00 10 1009.8
20260504014316 12 259 35.4 49.9 0.00 0.00 0.00 10 1009.9
20260504013927 12 259 35.4 49.9 0.00 0.00 0.00 10 1009.9
20260504013410 12 255 35.4 51.5 0.00 0.00 0.00 9 1009.9
20260504012927 12 255 35.4 51.5 0.00 0.00 0.00 9 1009.9
20260504012241 13 249 30.6 54.7 0.00 0.00 0.00 9 1010.1
20260504011927 13 249 30.6 54.7 0.00 0.00 0.00 9 1010.1
20260504010927 13 256 37.0 59.5 0.00 0.00 0.00 10 1010.1
20260504005927 13 245 38.6 53.1 0.00 0.00 0.00 13 1010.0
20260504005227 13 249 29.0 48.3 0.00 0.00 0.00 19 1010.2
20260504004927 13 249 29.0 48.3 0.00 0.00 0.00 19 1010.2
20260504004311 13 251 24.1 41.8 0.00 0.00 0.00 21 1010.3
20260504003927 13 251 24.1 41.8 0.00 0.00 0.00 21 1010.3
20260504003339 12 245 25.7 38.6 0.00 0.00 0.00 24 1010.4
20260504002927 12 245 25.7 38.6 0.00 0.00 0.00 24 1010.4
20260504001927 12 248 29.0 45.1 0.00 0.00 0.00 24 1010.5
20260504000927 12 246 25.7 41.8 0.00 0.00 0.00 24 1010.4
20260503235927 13 244 27.4 43.5 0.00 0.00 0.00 23 1010.5
20260503234927 14 236 25.7 49.9 0.00 0.00 0.00 22 1010.4
20260503234410 13 248 25.7 53.1 0.00 0.00 0.00 20 1010.5
20260503233927 13 248 25.7 53.1 0.00 0.00 0.00 20 1010.5
20260503232927 13 254 33.8 57.9 0.00 0.00 0.00 21 1010.7
20260503231927 13 258 46.7 59.5 0.00 0.00 0.00 19 1010.4
20260503230927 13 243 32.2 56.3 0.00 0.00 0.00 19 1010.5
20260503230259 13 253 41.8 64.4 0.00 0.00 0.00 17 1010.5
20260503225927 13 253 41.8 64.4 0.00 0.00 0.00 17 1010.5
20260503225550 13 253 40.2 54.7 0.00 0.00 0.00 17 1010.7
20260503224927 13 253 40.2 54.7 0.00 0.00 0.00 17 1010.7
20260503224616 13 248 32.2 49.9 0.00 0.00 0.00 18 1010.9
20260503223927 13 248 32.2 49.9 0.00 0.00 0.00 18 1010.9
20260503222928 13 249 30.6 43.5 0.00 0.00 0.00 18 1011.0
20260503222304 13 246 20.9 51.5 0.00 0.00 0.00 20 1011.1
20260503221927 13 246 20.9 51.5 0.00 0.00 0.00 20 1011.1
20260503221425 14 251 35.4 54.7 0.00 0.00 0.00 17 1011.1
20260503220927 14 251 35.4 54.7 0.00 0.00 0.00 17 1011.1
20260503220346 14 250 37.0 49.9 0.00 0.00 0.00 17 1011.4
20260503215927 14 250 37.0 49.9 0.00 0.00 0.00 17 1011.4
20260503215541 14 256 33.8 46.7 0.00 0.00 0.00 17 1011.3
20260503214927 14 256 33.8 46.7 0.00 0.00 0.00 17 1011.3
20260503213927 13 243 22.5 45.1 0.00 0.00 0.00 22 1011.6
20260503212927 13 251 30.6 54.7 0.00 0.00 0.00 23 1011.7
20260503211927 13 251 32.2 43.5 0.00 0.00 0.00 26 1011.8
20260503210927 12 236 11.3 33.8 0.00 0.00 0.00 32 1012.0
20260503205927 12 255 16.1 45.1 0.00 0.00 0.00 30 1012.1
20260503204928 13 248 27.4 40.2 0.00 0.00 0.00 28 1012.1
20260503203927 13 229 12.9 40.2 0.00 0.00 0.00 30 1012.2
20260503202927 13 251 25.7 38.6 0.00 0.00 0.00 29 1012.2
20260503201927 13 239 11.3 27.4 0.00 0.00 0.00 29 1012.4
20260503200927 13 229 12.9 38.6 0.00 0.00 0.00 31 1012.4
20260503195926 13 235 19.3 30.6 0.00 0.00 0.00 30 1012.4
20260503194928 13 243 16.1 33.8 0.00 0.00 0.00 29 1012.6
20260503193929 13 222 11.3 30.6 0.00 0.00 0.00 30 1012.7
20260503192927 13 227 12.9 25.7 0.00 0.00 0.00 31 1012.7
20260503191927 13 243 11.3 29.0 0.00 0.00 0.00 31 1012.9
20260503190927 13 216 9.7 22.5 0.00 0.00 0.00 33 1012.9
20260503185928 13 203 9.7 20.9 0.00 0.00 0.00 33 1013.0
20260503184928 12 200 8.0 22.5 0.00 0.00 0.00 36 1013.1
20260503183927 12 202 8.0 29.0 0.00 0.00 0.00 37 1013.1
20260503182927 11 199 11.3 20.9 0.00 0.00 0.00 38 1013.1
20260503181928 11 227 14.5 25.7 0.00 0.00 0.00 36 1013.2
20260503180927 12 206 9.7 25.7 0.00 0.00 0.00 36 1013.2
20260503175927 11 186 11.3 24.1 0.00 0.00 0.00 38 1013.4
20260503174926 11 200 9.7 22.5 0.00 0.00 0.00 41 1013.5
20260503173927 11 181 14.5 24.1 0.00 0.00 0.00 39 1013.4
20260503172926 10 188 9.7 22.5 0.00 0.00 0.00 41 1013.5
20260503171927 10 193 8.0 22.5 0.00 0.00 0.00 42 1013.5
20260503170927 10 201 8.0 20.9 0.00 0.00 0.00 43 1013.4
20260503150926 8 162 11.3 20.9 0.00 0.00 0.00 42 1013.4
20260503130927 7 126 6.4 17.7 0.00 0.00 0.00 45 1012.8
20260503072928 7 121 9.7 20.9 0.00 0.00 0.00 41 1013.6
20260503071928 7 133 8.0 20.9 0.00 0.00 0.00 39 1013.5
20260503070928 7 130 9.7 20.9 0.00 0.00 0.00 39 1013.5
20260503054930 8 135 6.4 14.5 0.00 0.00 0.00 32 1013.4
20260503053928 8 127 8.0 16.1 0.00 0.00 0.00 32 1013.5
20260503052928 8 146 6.4 16.1 0.00 0.00 0.00 31 1013.5
20260503051928 8 138 6.4 16.1 0.00 0.00 0.00 31 1013.5
20260503050928 8 139 8.0 19.3 0.00 0.00 0.00 31 1013.4
20260503045928 8 120 11.3 19.3 0.00 0.00 0.00 31 1013.3
20260503044928 8 119 9.7 19.3 0.00 0.00 0.00 31 1013.4
20260503043930 8 120 8.0 14.5 0.00 0.00 0.00 31 1013.3
20260503042928 8 119 8.0 16.1 0.00 0.00 0.00 30 1013.2
20260503041928 8 137 4.8 14.5 0.00 0.00 0.00 30 1013.1
20260503040928 8 151 8.0 16.1 0.00 0.00 0.00 30 1013.2
20260503035928 8 122 6.4 16.1 0.00 0.00 0.00 29 1013.0
20260503035346 8 135 8.0 16.1 0.00 0.00 0.00 29 1012.9
20260503034933 8 135 8.0 16.1 0.00 0.00 0.00 29 1012.9
20260503033929 8 140 6.4 17.7 0.00 0.00 0.00 29 1012.9
20260503033215 8 131 6.4 17.7 0.00 0.00 0.00 29 1012.9
20260503032929 8 131 6.4 17.7 0.00 0.00 0.00 29 1012.9
20260503032114 9 121 6.4 17.7 0.00 0.00 0.00 28 1012.8
20260503031928 9 121 6.4 17.7 0.00 0.00 0.00 28 1012.8
20260503030928 9 124 9.7 19.3 0.00 0.00 0.00 28 1012.7